| time (UTC) | temp C | wind direction | speed KPH | gust KPH | rain 1hr cm | rain 24hr cm | rain mn cm | humidity % | barometer mb |
| 20260507183116 | 19 | 198 | 9.7 | 17.7 | 0.00 | 0.64 | 0.64 | 40 | 1015.7 |
| 20260507181601 | 20 | 274 | 6.4 | 17.7 | 0.00 | 0.64 | 0.64 | 39 | 1015.4 |
| 20260507180059 | 20 | 246 | 9.7 | 24.1 | 0.00 | 0.64 | 0.64 | 38 | 1015.4 |
| 20260507174604 | 20 | 215 | 11.3 | 25.7 | 0.00 | 0.64 | 0.64 | 37 | 1015.4 |
| 20260507173108 | 20 | 222 | 12.9 | 19.3 | 0.00 | 0.64 | 0.64 | 37 | 1015.3 |
| 20260507171555 | 20 | 210 | 12.9 | 22.5 | 0.00 | 0.64 | 0.64 | 36 | 1015.3 |
| 20260507170057 | 21 | 215 | 12.9 | 19.3 | 0.00 | 0.64 | 0.64 | 35 | 1015.2 |
| 20260507164627 | 21 | 210 | 11.3 | 20.9 | 0.00 | 0.64 | 0.64 | 36 | 1015.3 |
| 20260507163056 | 21 | 202 | 6.4 | 22.5 | 0.00 | 0.64 | 0.64 | 36 | 1015.3 |
| 20260507161558 | 21 | 224 | 9.7 | 24.1 | 0.00 | 0.64 | 0.64 | 36 | 1015.4 |
| 20260507160052 | 21 | 209 | 12.9 | 24.1 | 0.00 | 0.64 | 0.64 | 36 | 1015.3 |
| 20260507154556 | 22 | 222 | 11.3 | 22.5 | 0.00 | 0.64 | 0.64 | 34 | 1015.4 |
| 20260507153051 | 22 | 216 | 14.5 | 25.7 | 0.00 | 0.64 | 0.64 | 36 | 1015.1 |
| 20260507151550 | 22 | 208 | 12.9 | 25.7 | 0.00 | 0.64 | 0.64 | 35 | 1015.2 |
| 20260507150049 | 22 | 291 | 9.7 | 22.5 | 0.00 | 0.64 | 0.64 | 35 | 1015.1 |
| 20260507144546 | 22 | 229 | 11.3 | 24.1 | 0.00 | 0.64 | 0.64 | 37 | 1015.3 |
| 20260507143047 | 22 | 31 | 9.7 | 17.7 | 0.00 | 0.64 | 0.64 | 42 | 1015.4 |
| 20260507141544 | 22 | 253 | 12.9 | 27.4 | 0.00 | 0.64 | 0.64 | 44 | 1015.5 |
| 20260507140045 | 22 | 224 | 9.7 | 24.1 | 0.00 | 0.64 | 0.64 | 41 | 1015.5 |
| 20260507134544 | 23 | 257 | 17.7 | 35.4 | 0.00 | 0.64 | 0.64 | 43 | 1015.5 |
| 20260507133047 | 22 | 227 | 14.5 | 29.0 | 0.00 | 0.64 | 0.64 | 44 | 1015.5 |
| 20260507131541 | 22 | 261 | 12.9 | 25.7 | 0.00 | 0.64 | 0.64 | 47 | 1015.7 |
| 20260507130042 | 22 | 223 | 14.5 | 27.4 | 0.00 | 0.64 | 0.64 | 50 | 1015.9 |
| 20260507124540 | 22 | 192 | 9.7 | 22.5 | 0.00 | 0.64 | 0.64 | 49 | 1016.0 |
| 20260507123037 | 22 | 264 | 16.1 | 27.4 | 0.00 | 0.64 | 0.64 | 49 | 1016.1 |
| 20260507121535 | 22 | 272 | 12.9 | 30.6 | 0.00 | 0.64 | 0.64 | 51 | 1015.8 |
| 20260507120033 | 22 | 229 | 11.3 | 32.2 | 0.00 | 0.64 | 0.64 | 55 | 1015.9 |
| 20260507114553 | 22 | 247 | 11.3 | 32.2 | 0.00 | 0.64 | 0.64 | 57 | 1015.7 |
| 20260507113057 | 22 | 251 | 17.7 | 33.8 | 0.00 | 0.64 | 0.64 | 58 | 1016.0 |
| 20260507111536 | 22 | 5 | 9.7 | 33.8 | 0.00 | 0.64 | 0.64 | 62 | 1016.0 |
| 20260507110025 | 21 | 258 | 22.5 | 35.4 | 0.00 | 0.64 | 0.64 | 62 | 1016.4 |
| 20260507104527 | 21 | 218 | 20.9 | 38.6 | 0.00 | 0.64 | 0.64 | 63 | 1016.2 |
| 20260507103025 | 21 | 273 | 19.3 | 35.4 | 0.00 | 0.64 | 0.64 | 64 | 1016.3 |
| 20260507101524 | 21 | 328 | 19.3 | 45.1 | 0.00 | 0.64 | 0.64 | 65 | 1016.4 |
| 20260507100020 | 21 | 305 | 19.3 | 48.3 | 0.00 | 0.64 | 0.64 | 64 | 1016.4 |
| 20260507094517 | 20 | 231 | 14.5 | 33.8 | 0.00 | 0.64 | 0.64 | 68 | 1016.4 |
| 20260507093014 | 20 | 215 | 16.1 | 38.6 | 0.00 | 0.64 | 0.64 | 70 | 1016.4 |
| 20260507091512 | 20 | 250 | 14.5 | 29.0 | 0.00 | 0.64 | 0.64 | 72 | 1016.2 |
| 20260507090009 | 19 | 270 | 17.7 | 40.2 | 0.00 | 0.64 | 0.64 | 76 | 1015.8 |
| 20260507084507 | 19 | 214 | 24.1 | 38.6 | 0.00 | 0.64 | 0.64 | 79 | 1015.5 |
| 20260507083004 | 18 | 217 | 14.5 | 38.6 | 0.00 | 0.64 | 0.64 | 80 | 1015.4 |
| 20260507081503 | 18 | 224 | 17.7 | 30.6 | 0.00 | 0.64 | 0.64 | 80 | 1015.4 |
| 20260507080059 | 18 | 261 | 16.1 | 27.4 | 0.00 | 0.64 | 0.64 | 80 | 1015.5 |
| 20260507074600 | 17 | 213 | 16.1 | 43.5 | 0.00 | 0.64 | 0.64 | 82 | 1015.8 |
| 20260507073100 | 17 | 211 | 19.3 | 45.1 | 0.00 | 0.64 | 0.64 | 82 | 1016.3 |
| 20260507071555 | 17 | 248 | 20.9 | 41.8 | 0.00 | 0.64 | 0.64 | 82 | 1016.5 |
| 20260507070054 | 17 | 258 | 12.9 | 25.7 | 0.00 | 0.64 | 0.64 | 83 | 1016.3 |
| 20260507064555 | 16 | 229 | 12.9 | 27.4 | 0.00 | 0.64 | 0.64 | 82 | 1016.1 |
| 20260507063051 | 16 | 181 | 17.7 | 29.0 | 0.03 | 0.64 | 0.64 | 83 | 1016.2 |
| 20260507061551 | 16 | 229 | 11.3 | 29.0 | 0.05 | 0.64 | 0.64 | 88 | 1016.8 |
| 20260507060056 | 16 | 218 | 14.5 | 30.6 | 0.05 | 0.64 | 0.64 | 90 | 1017.4 |
| 20260507054548 | 16 | 224 | 11.3 | 20.9 | 0.08 | 0.64 | 0.64 | 91 | 1017.4 |
| 20260507053037 | 16 | 204 | 8.0 | 16.1 | 0.08 | 0.61 | 0.61 | 91 | 1017.5 |
| 20260507051536 | 16 | 184 | 8.0 | 14.5 | 0.08 | 0.61 | 0.61 | 91 | 1017.6 |
| 20260507050035 | 16 | 186 | 6.4 | 12.9 | 0.15 | 0.58 | 0.58 | 91 | 1017.8 |
| 20260507044534 | 16 | 212 | 4.8 | 11.3 | 0.20 | 0.56 | 0.56 | 91 | 1017.6 |
| 20260507043035 | 16 | 201 | 4.8 | 6.4 | 0.23 | 0.53 | 0.53 | 91 | 1017.2 |
| 20260507041531 | 16 | 178 | 3.2 | 12.9 | 0.20 | 0.51 | 0.51 | 90 | 1017.2 |
| 20260507040030 | 16 | 213 | 4.8 | 16.1 | 0.15 | 0.43 | 0.43 | 90 | 1017.5 |
| 20260507034534 | 16 | 210 | 8.0 | 25.7 | 0.05 | 0.36 | 0.36 | 91 | 1017.4 |
| 20260507033026 | 16 | 243 | 9.7 | 24.1 | 0.05 | 0.33 | 0.33 | 91 | 1017.3 |
| 20260507031524 | 16 | 224 | 11.3 | 20.9 | 0.10 | 0.33 | 0.33 | 91 | 1017.1 |
| 20260507030022 | 16 | 279 | 4.8 | 14.5 | 0.10 | 0.30 | 0.30 | 91 | 1016.8 |
| 20260507024519 | 16 | 261 | 3.2 | 8.0 | 0.13 | 0.30 | 0.30 | 90 | 1016.3 |
| 20260507023016 | 16 | 319 | 3.2 | 6.4 | 0.10 | 0.23 | 0.23 | 89 | 1016.3 |
| 20260507021515 | 16 | 271 | 0.0 | 19.3 | 0.10 | 0.23 | 0.23 | 89 | 1015.9 |
| 20260507020018 | 16 | 205 | 8.0 | 24.1 | 0.10 | 0.20 | 0.20 | 88 | 1015.9 |
| 20260507014512 | 16 | 221 | 12.9 | 27.4 | 0.05 | 0.15 | 0.15 | 87 | 1016.3 |
| 20260507013009 | 16 | 238 | 9.7 | 17.7 | 0.10 | 0.15 | 0.15 | 87 | 1016.4 |
| 20260507011512 | 17 | 307 | 6.4 | 11.3 | 0.10 | 0.13 | 0.13 | 86 | 1016.3 |
| 20260507010006 | 16 | 224 | 3.2 | 11.3 | 0.08 | 0.10 | 0.10 | 87 | 1016.2 |
| 20260507004504 | 17 | 274 | 4.8 | 12.9 | 0.10 | 0.10 | 0.10 | 87 | 1016.4 |
| 20260507003001 | 17 | 222 | 4.8 | 11.3 | 0.05 | 0.05 | 0.05 | 86 | 1016.1 |
| 20260507001502 | 17 | 223 | 1.6 | 6.4 | 0.03 | 0.03 | 0.03 | 85 | 1016.0 |
| 20260506234603 | 17 | 255 | 0.0 | 0.0 | 0.00 | 0.00 | 0.00 | 84 | 1015.7 |
| 20260506233100 | 17 | 289 | 0.0 | 0.0 | 0.00 | 0.00 | 0.00 | 83 | 1015.9 |
| 20260506231605 | 17 | 209 | 1.6 | 8.0 | 0.00 | 0.00 | 0.00 | 82 | 1015.7 |
| 20260506230111 | 17 | 321 | 0.0 | 11.3 | 0.00 | 0.00 | 0.00 | 81 | 1015.8 |
| 20260506224555 | 17 | 271 | 0.0 | 9.7 | 0.00 | 0.00 | 0.00 | 81 | 1015.8 |
| 20260506223052 | 17 | 307 | 1.6 | 14.5 | 0.00 | 0.00 | 0.00 | 81 | 1016.0 |
| 20260506221605 | 17 | 214 | 3.2 | 11.3 | 0.00 | 0.00 | 0.00 | 81 | 1016.0 |
| 20260506220049 | 18 | 264 | 6.4 | 14.5 | 0.00 | 0.00 | 0.00 | 81 | 1016.1 |
| 20260506214554 | 18 | 240 | 8.0 | 22.5 | 0.00 | 0.00 | 0.00 | 80 | 1016.1 |
| 20260506213048 | 17 | 259 | 8.0 | 19.3 | 0.00 | 0.00 | 0.00 | 80 | 1016.1 |
| 20260506211547 | 17 | 279 | 6.4 | 17.7 | 0.00 | 0.00 | 0.00 | 80 | 1016.2 |
| 20260506210054 | 17 | 290 | 8.0 | 17.7 | 0.00 | 0.00 | 0.00 | 80 | 1016.0 |
| 20260506204547 | 17 | 293 | 9.7 | 17.7 | 0.00 | 0.00 | 0.00 | 80 | 1015.7 |
| 20260506203045 | 17 | 249 | 4.8 | 20.9 | 0.00 | 0.00 | 0.00 | 80 | 1015.6 |
| 20260506201545 | 17 | 266 | 9.7 | 20.9 | 0.00 | 0.00 | 0.00 | 79 | 1015.6 |
| 20260506200043 | 17 | 264 | 8.0 | 32.2 | 0.00 | 0.00 | 0.00 | 79 | 1015.4 |
| 20260506194543 | 17 | 266 | 11.3 | 20.9 | 0.00 | 0.00 | 0.00 | 78 | 1015.4 |
| 20260506193046 | 18 | 262 | 11.3 | 25.7 | 0.00 | 0.00 | 0.00 | 78 | 1015.3 |
| 20260506191542 | 18 | 279 | 11.3 | 24.1 | 0.00 | 0.00 | 0.00 | 78 | 1015.2 |
| 20260506190040 | 18 | 260 | 16.1 | 37.0 | 0.00 | 0.00 | 0.00 | 78 | 1015.0 |
| 20260506184544 | 18 | 249 | 11.3 | 25.7 | 0.00 | 0.00 | 0.00 | 78 | 1014.9 |